This demonstration page uses our WeatherBlox Daily Observations layout. Learn more.

38.89511, -77.03637

Hourly Observations for October 25, 2015

Temp ( °F °C ) Dew Point ( °F °C ) Humidity (%) Winds ( mph kmh ) Pressure ( in mb ) Visibility ( mi km ) Precip ( " mm )
12:52 am 00:52 Cloudy 58 14.4 51 10.6 78 78 S 9 15 30.16 1021 10 16.0934 0 0
1:52 am 01:52 Cloudy 58 14.4 51 10.6 78 78 S 8 13 30.14 1021 10 16.0934 0 0
2:52 am 02:52 Cloudy with Light Rain 58 14.4 51 10.6 78 78 S 10 17 30.13 1020 10 16.0934 0 0.0254
3:52 am 03:52 Cloudy with Light Rain 57 13.9 52 11.1 83 83 S 10 17 30.1 1019 10 16.0934 0 0.0254
4:52 am 04:52 Cloudy with Light Rain 57 13.9 52 11.1 83 83 S 10 17 30.08 1019 10 16.0934 0 0.0254
5:52 am 05:52 Cloudy 57 13.9 53 11.7 87 87 S 10 17 30.08 1019 10 16.0934 0 0.0254
6:52 am 06:52 Cloudy with Light Rain 57 13.9 53 11.7 87 87 SSW 8 13 30.08 1019 10 16.0934 0 0.0254
7:52 am 07:52 Mostly Cloudy 57 13.9 54 12.2 90 90 S 10 17 30.09 1019 10 16.0934 0.01 0.254
8:52 am 08:52 Cloudy with Light Rain 57 13.9 55 12.8 93 93 SSW 7 11 30.11 1020 10 16.0934 0.01 0.254
9:52 am 09:52 Cloudy 58 14.4 56 13.3 93 93 SSW 3 6 30.12 1020 10 16.0934 0.01 0.254
10:52 am 10:52 Cloudy 59 15 56 13.3 90 90 WSW 5 7 30.14 1021 10 16.0934 0 0
11:52 am 11:52 Mostly Cloudy 62 16.7 56 13.3 80 80 W 5 7 30.14 1021 10 16.0934 0 0
12:52 pm 12:52 Mostly Cloudy 64 17.8 57 13.9 78 78 ENE 5 7 30.12 1020 10 16.0934 0 0
1:52 pm 13:52 Mostly Cloudy 68 20 56 13.3 65 65 NW 8 13 30.11 1020 10 16.0934 0 0
2:52 pm 14:52 Mostly Cloudy 70 21.1 54 12.2 57 57 NNW 14 22 30.1 1019 10 16.0934 0 0
3:52 pm 15:52 Mostly Cloudy 70 21.1 51 10.6 51 51 NW 15 24 30.11 1020 10 16.0934 0 0
4:52 pm 16:52 Mostly Cloudy 69 20.6 48 8.9 47 47 NW 17 28 30.12 1020 10 16.0934 0 0
5:52 pm 17:52 Mostly Cloudy 65 18.3 48 8.9 54 54 NNW 14 22 30.15 1021 10 16.0934 0 0
6:52 pm 18:52 Mostly Cloudy 62 16.7 46 7.8 56 56 NNW 12 19 30.19 1022 10 16.0934 0 0
7:52 pm 19:52 Partly Cloudy 61 16.1 44 6.7 54 54 NNW 12 19 30.23 1024 10 16.0934 0 0
8:52 pm 20:52 Partly Cloudy 59 15 43 6.1 56 56 N 8 13 30.24 1024 10 16.0934 0 0
9:52 pm 21:52 Mostly Cloudy 59 15 43 6.1 56 56 N 10 17 30.27 1025 10 16.0934 0 0
10:52 pm 22:52 Cloudy 57 13.9 41 5 55 55 N 13 20 30.29 1026 10 16.0934 0 0
11:52 pm 23:52 Cloudy 55 12.8 41 5 59 59 N 7 11 30.32 1027 10 16.0934 0 0

Powered by AerisWeather